Weather History for KFSD - August, 2014

Change the Weather History Date:

Wednesday, August 27, 2014

  Actual Average Record
Temperature  
Mean Temperature 67 °F 69 °F  
Max Temperature 75 °F 80 °F 101 °F (1973)
Min Temperature 58 °F 57 °F 35 °F (1896)
Degree Days  
Heating Degree Days 0 1  
Month to date heating degree days 3 14  
Since 1 June heating degree days 50 73  
Since 1 July heating degree days 18 22  
Cooling Degree Days 2 5  
Month to date cooling degree days 168 180  
Year to date cooling degree days 529 607  
Since 1 June cooling degree days 476 571  
Growing Degree Days 16 (Base 50)    
Moisture  
Dew Point 61 °F    
Average Humidity 81    
Maximum Humidity 93    
Minimum Humidity 68    
Precipitation  
Precipitation 0.00 in 0.10 in 1.33 in (1952)
Month to date precipitation 4.01 2.65  
Year to date precipitation 23.49 18.99  
Snow  
Snow 0.00 in 0.00 in 0.00 in ()
Month to date snowfall 0.0 0.0  
Since 1 June snowfall T 0.0  
Since 1 July snowfall T 0.0  
Snow Depth 0.00 in    
Sea Level Pressure  
Sea Level Pressure 30.13 in    
Wind  
Wind Speed 9 mph (ESE)    
Max Wind Speed 17 mph    
Max Gust Speed 22 mph    
Visibility 10 miles    
Events      
T = Trace of Precipitation, MM = Missing Value Source: NWS Daily Summary

Daily Weather History Graph

Daily Weather History Graph

Search for Another Location

Airport or City:

Trip Planner

Search our weather history database for the weather conditions in past years. The results will help you decide how hot, cold, wet, or windy it might be!

Date:

Astronomy

Aug. 27, 2014 Rise Set
Actual Time 6:45 AM CDT 8:10 PM CDT
Civil Twilight 6:15 AM CDT 8:40 PM CDT
Nautical Twilight 5:39 AM CDT 9:16 PM CDT
Astronomical Twilight 5:00 AM CDT 9:54 PM CDT
Moon 8:47 AM CDT (8/27) 8:58 PM CDT (8/27)
Length of Visible Light 14h 25m
Length of Day
13h 25m
Waxing Crescent, 4% of the Moon is Illuminated
Aug 27
Waxing Crescent
Sep 2
First Quarter
Sep 8
Full
Sep 15
Last Quarter
Sep 24
New

Hourly Weather History & Observations

Time (CDT) Temp. Dew Point Humidity Pressure Visibility Wind Dir Wind Speed Gust Speed Precip Events Conditions
12:56 AM 61.0 °F 57.9 °F 90% 30.18 in 10.0 mi Calm Calm - N/A   Mostly Cloudy
1:56 AM 60.1 °F 57.0 °F 90% 30.17 in 10.0 mi NE 3.5 mph - N/A   Clear
2:56 AM 59.0 °F 57.0 °F 93% 30.17 in 10.0 mi ENE 4.6 mph - N/A   Scattered Clouds
3:56 AM 59.0 °F 57.0 °F 93% 30.15 in 10.0 mi East 6.9 mph - N/A   Clear
4:56 AM 57.9 °F 55.9 °F 93% 30.15 in 10.0 mi East 5.8 mph - N/A   Scattered Clouds
5:14 AM 57.9 °F 55.9 °F 93% 30.16 in 10.0 mi East 4.6 mph - N/A   Mostly Cloudy
5:56 AM 60.1 °F 55.9 °F 86% 30.13 in 10.0 mi East 4.6 mph - N/A   Overcast
6:56 AM 61.0 °F 55.9 °F 83% 30.15 in 10.0 mi ENE 4.6 mph - N/A   Mostly Cloudy
7:56 AM 60.1 °F 55.9 °F 86% 30.16 in 10.0 mi East 5.8 mph - N/A   Mostly Cloudy
8:21 AM 61.0 °F 55.0 °F 81% 30.18 in 10.0 mi ESE 8.1 mph - N/A   Mostly Cloudy
8:56 AM 62.1 °F 55.9 °F 80% 30.18 in 10.0 mi ESE 6.9 mph - N/A   Mostly Cloudy
9:56 AM 64.0 °F 57.0 °F 78% 30.20 in 10.0 mi East 5.8 mph - N/A   Mostly Cloudy
10:56 AM 66.0 °F 57.9 °F 75% 30.19 in 10.0 mi SE 6.9 mph - N/A   Overcast
11:56 AM 66.9 °F 59.0 °F 76% 30.17 in 10.0 mi ESE 10.4 mph - N/A   Mostly Cloudy
12:56 PM 69.1 °F 60.1 °F 73% 30.16 in 10.0 mi ESE 11.5 mph - N/A   Mostly Cloudy
1:56 PM 72.0 °F 62.1 °F 71% 30.13 in 10.0 mi ESE 15.0 mph - N/A   Mostly Cloudy
2:56 PM 73.0 °F 63.0 °F 71% 30.12 in 10.0 mi ESE 11.5 mph - N/A   Mostly Cloudy
3:46 PM 73.0 °F 64.0 °F 73% 30.12 in 10.0 mi SSE 11.5 mph - N/A   Mostly Cloudy
3:56 PM 73.0 °F 64.0 °F 73% 30.11 in 10.0 mi ESE 11.5 mph - N/A   Mostly Cloudy
4:44 PM 73.0 °F 64.0 °F 73% 30.11 in 10.0 mi South 10.4 mph - N/A   Mostly Cloudy
4:56 PM 72.0 °F 64.0 °F 76% 30.10 in 10.0 mi SSE 12.7 mph - N/A   Mostly Cloudy
5:56 PM 72.0 °F 64.0 °F 76% 30.08 in 10.0 mi SE 10.4 mph - N/A   Overcast
6:56 PM 71.1 °F 64.9 °F 81% 30.07 in 10.0 mi ESE 9.2 mph - N/A   Overcast
7:56 PM 70.0 °F 66.0 °F 87% 30.07 in 10.0 mi East 8.1 mph - N/A   Mostly Cloudy
8:42 PM 70.0 °F 66.0 °F 87% 30.08 in 10.0 mi East 8.1 mph - N/A   Overcast
8:56 PM 70.0 °F 66.0 °F 87% 30.07 in 10.0 mi East 8.1 mph - N/A   Overcast
9:29 PM 69.8 °F 66.2 °F 88% 30.09 in 10.0 mi East 10.4 mph - N/A   Overcast
9:46 PM 69.1 °F 64.9 °F 87% 30.09 in 10.0 mi ESE 9.2 mph - N/A   Overcast
9:56 PM 69.1 °F 64.9 °F 87% 30.08 in 10.0 mi ESE 8.1 mph - N/A   Overcast
10:56 PM 70.0 °F 64.9 °F 84% 30.08 in 10.0 mi ESE 11.5 mph - N/A   Overcast
11:16 PM 69.1 °F 64.9 °F 87% 30.08 in 10.0 mi SE 8.1 mph - N/A   Overcast
11:24 PM 69.1 °F 64.9 °F 87% 30.08 in 10.0 mi SE 9.2 mph - N/A   Overcast
11:56 PM 69.1 °F 64.9 °F 87% 30.06 in 10.0 mi SE 11.5 mph - N/A   Overcast